Hourly Weather Roundup
Issued by NWS Central Illinois

Home | Current Version | Previous Version | Text Only | Print | Product List | Glossary On
Versions: 1 2 3 4 5 6 7 8 9 10 11 12 13 14 15 16 17 18 19 20 21 22 23 24 25 26 27 28 29 30 31 32 33 34 35 36 37 38 39 40 41 42 43 44 45 46 47 48 49 50
000
NZUS43 KILX 200810
HWRILX

Area Weather Roundup
National Weather Service Lincoln IL
300 AM CDT FRI OCT 20 2017

NOTE:  "FAIR" indicates few or no clouds below 12,000 feet, with
       no sigificant weather and/or obstructions to visibility.


CITY           SKY/WX    TMP DP  RH WIND       PRES   REMARKS
Bloomington    FAIR      53  48  83 S8        30.18R
Champaign      FAIR      56  49  77 S7        30.19S
Danville       FAIR      52  49  92 CALM      30.18S
Decatur        FAIR      55  49  80 S7        30.18S
Effingham      FAIR      50  50 100 E3        30.22S
Flora          FAIR      51  49  93 S3        30.21S
Galesburg      FAIR      62  57  84 S6        30.13R
Jacksonville   FAIR      58  49  72 S6        30.15S
Lacon          FAIR      56  49  77 SE5       30.13S
Lawrenceville  FAIR      53  50  89 CALM      30.22S
Litchfield     FAIR      54  49  84 S6        30.18S
$$


CITY           SKY/WX    TMP DP  RH WIND       PRES   REMARKS
Lincoln        FAIR      57  51  81 S8        30.16S
Macomb         FAIR      57  50  78 S7        30.14R
Mattoon        FAIR      58  52  80 S7        30.19S
Mt Carmel AP   FAIR      50  49  95 E3        30.22S
Olney-Noble AP FAIR      53  51  93 CALM      30.22S
Paris AP       FAIR      53  50  89 SE5       30.21S
Peoria         FAIR      55  50  83 S6        30.14S
Pontiac        FAIR      51  50  97 SE5       30.17S
Rantoul        FAIR      52  49  90 CALM      30.19S
Robinson       FAIR      48  48  99 CALM      30.23R
Springfield    FAIR      59  51  75 S7        30.16R
Taylorville    FAIR      56  50  79 S6        30.18R
$$

...REGIONAL REPORTS...


CITY           SKY/WX    TMP DP  RH WIND       PRES   REMARKS
Chicago O`Hare FAIR      52  40  63 S5        30.14S
Kankakee       FAIR      49  47  93 SE3       30.18S
Moline         FAIR      57  48  72 CALM      30.09S
Mount Sterling FAIR      55  48  80 S6        30.12F
Mount Vernon   FAIR      45  45 100 CALM      30.21S FOG
Pittsfield     FAIR      57  50  77 S5        30.15S
Quincy         NOT AVBL
Rockford       FAIR      50  42  74 S5        30.14S
$$


CITY           SKY/WX    TMP DP  RH WIND       PRES   REMARKS
Burlington     FAIR      58  51  78 S8        30.10S
Cedar Rapids   FAIR      52  49  89 S3        30.06S
Des Moines     FAIR      59  52  77 S8        30.03R
Kirksville     FAIR      56  51  84 S7        30.11R
Ottumwa        FAIR      56  50  80 S9        30.06S
St Louis       FAIR      58  50  75 S3        30.16S
$$


CITY           SKY/WX    TMP DP  RH WIND       PRES   REMARKS
Terre Haute    FAIR      49  47  93 CALM      30.22R
Evansville     FAIR      50  48  93 CALM      30.23S FOG
Indianapolis   FAIR      54  50  86 S5        30.23S
Lafayette      FAIR      49  49 100 CALM      30.20S
Madison        FAIR      54  40  59 S8        30.09S
Milwaukee      FAIR      53  34  48 SW3       30.12S
$$






USA.gov is the U.S. government's official web portal to all federal, state and local government web resources and services.